Galliano, LA

11:05 PM CDT on June 28, 2017 (GMT -0500)
Galliano

Weather History for KGAO - November, 2013

Change the Weather History Date:

Wednesday, November 27, 2013

  Actual Average (KHUM) Record (KHUM)
Temperature  
Mean Temperature 44 °F -  
Max Temperature 52 °F 73 °F 83 °F (1960)
Min Temperature 37 °F 54 °F 27 °F (1956)
Degree Days  
Heating Degree Days 20    
Moisture  
Dew Point 36 °F    
Average Humidity 76    
Maximum Humidity 100    
Minimum Humidity 46    
Precipitation  
Precipitation 0.00 in - - ()
Sea Level Pressure  
Sea Level Pressure 30.24 in    
Wind  
Wind Speed 14 mph (NNW)    
Max Wind Speed 21 mph    
Max Gust Speed 29 mph    
Visibility 10 miles    
Events      
Averages and records for this station are not official NWS values.
T = Trace of Precipitation, MM = Missing Value Source: NWS Daily Summary

Daily Weather History Graph

Daily Weather History Graph

Search for Another Location

Airport or City:

Trip Planner

Search our weather history database for the weather conditions in past years. The results will help you decide how hot, cold, wet, or windy it might be!

Date:

Astronomy

Nov. 27, 2013 Rise Set
Actual Time 6:35 AM CST 5:02 PM CST
Civil Twilight 6:09 AM CST 5:27 PM CST
Nautical Twilight 5:40 AM CST 5:57 PM CST
Astronomical Twilight 5:11 AM CST 6:25 PM CST
Moon 1:01 AM CST (11/27) 1:17 PM CST (11/27)
Length of Visible Light 11h 18m
Length of Day
10h 27m
Waning Crescent, 31% of the Moon is Illuminated
Nov 27
Waning Crescent
Dec 2
New
Dec 9
First Quarter
Dec 17
Full
Dec 25
Last Quarter

Hourly Weather History & Observations

Time (CST) Temp. Windchill Dew Point Humidity Pressure Visibility Wind Dir Wind Speed Gust Speed Precip Events Conditions
12:15 AM 41.5 °F 32.6 °F 41.5 °F 100% 30.05 in 10.0 mi NNW 19.6 mph 28.8 mph N/A   Overcast
12:35 AM 41.5 °F 32.4 °F 41.5 °F 100% 30.05 in 10.0 mi NNW 20.7 mph 26.5 mph N/A   Overcast
12:55 AM 41.2 °F 32.7 °F 41.2 °F 100% 30.05 in 10.0 mi NNW 17.3 mph 24.2 mph N/A   Overcast
1:15 AM 41.2 °F 32.4 °F 41.2 °F 100% 30.05 in 10.0 mi NNW 18.4 mph 23.0 mph N/A   Overcast
1:35 AM 41.2 °F 33.0 °F 41.2 °F 100% 30.07 in 10.0 mi NNW 16.1 mph 23.0 mph N/A   Mostly Cloudy
1:55 AM 40.5 °F 31.8 °F 40.5 °F 100% 30.06 in 10.0 mi NNW 17.3 mph 23.0 mph N/A   Scattered Clouds
2:15 AM 40.3 °F 31.6 °F 40.3 °F 100% 30.08 in 10.0 mi NNW 17.3 mph 21.9 mph N/A   Clear
2:35 AM 41.0 °F 32.8 °F 41.0 °F 100% 30.09 in 10.0 mi NNW 16.1 mph - N/A   Clear
2:55 AM 42.1 °F 34.2 °F 41.0 °F 96% 30.09 in 10.0 mi NNW 16.1 mph 21.9 mph N/A   Clear
3:15 AM 42.1 °F 33.9 °F 40.3 °F 93% 30.10 in 10.0 mi NNW 17.3 mph 21.9 mph N/A   Clear
3:35 AM 42.1 °F 34.2 °F 40.1 °F 93% 30.11 in 10.0 mi NNW 16.1 mph 24.2 mph N/A   Clear
3:55 AM 41.9 °F 34.0 °F 39.7 °F 92% 30.11 in 10.0 mi NNW 16.1 mph - N/A   Clear
4:15 AM 41.9 °F 34.6 °F 39.4 °F 91% 30.12 in 10.0 mi NNW 13.8 mph 21.9 mph N/A   Clear
4:35 AM 41.9 °F 34.6 °F 39.2 °F 90% 30.13 in 10.0 mi NNW 13.8 mph 20.7 mph N/A   Clear
4:55 AM 42.1 °F 34.5 °F 38.5 °F 87% 30.14 in 10.0 mi North 15.0 mph 20.7 mph N/A   Clear
5:15 AM 42.4 °F 34.1 °F 38.3 °F 85% 30.15 in 10.0 mi NNW 18.4 mph 25.3 mph N/A   Clear
5:35 AM 42.1 °F 35.2 °F 37.8 °F 85% 30.17 in 10.0 mi NNW 12.7 mph 23.0 mph N/A   Clear
5:55 AM 42.1 °F 34.5 °F 37.4 °F 83% 30.18 in 10.0 mi North 15.0 mph 25.3 mph N/A   Scattered Clouds
6:15 AM 42.3 °F 33.3 °F 37.2 °F 82% 30.19 in 10.0 mi North 20.7 mph 28.8 mph N/A   Mostly Cloudy
6:35 AM 42.3 °F 36.3 °F 36.9 °F 81% 30.20 in 10.0 mi NNW 10.4 mph 24.2 mph N/A   Overcast
6:55 AM 42.3 °F 36.8 °F 37.6 °F 83% 30.21 in 10.0 mi NNW 9.2 mph 17.3 mph N/A   Overcast
7:15 AM 42.1 °F 34.2 °F 36.9 °F 82% 30.22 in 10.0 mi North 16.1 mph 20.7 mph N/A   Mostly Cloudy
7:35 AM 43.3 °F 36.5 °F 36.7 °F 77% 30.23 in 10.0 mi North 13.8 mph 18.4 mph N/A   Mostly Cloudy
7:55 AM 42.4 °F 35.3 °F 37.0 °F 81% 30.23 in 10.0 mi NNW 13.8 mph 19.6 mph N/A   Scattered Clouds
8:15 AM 43.2 °F 35.3 °F 37.2 °F 80% 30.24 in 10.0 mi NW 17.3 mph 25.3 mph N/A   Mostly Cloudy
8:35 AM 43.3 °F 36.1 °F 37.6 °F 80% 30.25 in 10.0 mi NNW 15.0 mph 21.9 mph N/A   Scattered Clouds
8:55 AM 44.6 °F 37.4 °F 37.8 °F 77% 30.25 in 10.0 mi NNW 16.1 mph 26.5 mph N/A   Scattered Clouds
9:15 AM 45.0 °F 38.2 °F 38.5 °F 78% 30.25 in 10.0 mi NNW 15.0 mph 24.2 mph N/A   Scattered Clouds
9:35 AM 46.0 °F 39.0 °F 38.5 °F 75% 30.25 in 10.0 mi NW 17.3 mph 23.0 mph N/A   Scattered Clouds
9:55 AM 46.8 °F - 37.9 °F 71% 30.26 in 10.0 mi NNW 16.1 mph 21.9 mph N/A   Scattered Clouds
10:15 AM 46.2 °F 39.8 °F 37.4 °F 71% 30.26 in 10.0 mi NNW 15.0 mph 23.0 mph N/A   Scattered Clouds
10:35 AM 47.3 °F - 37.4 °F 68% 30.26 in 10.0 mi NNW 13.8 mph 18.4 mph N/A   Scattered Clouds
10:55 AM 48.0 °F - 37.4 °F 67% 30.26 in 10.0 mi NNW 17.3 mph 24.2 mph N/A   Clear
11:15 AM 48.2 °F - 37.4 °F 66% 30.25 in 10.0 mi NNW 15.0 mph - N/A   Clear
11:35 AM 48.2 °F - 36.7 °F 64% 30.24 in 10.0 mi North 15.0 mph 21.9 mph N/A   Clear
11:55 AM 49.3 °F - 36.9 °F 62% 30.24 in 10.0 mi NW 20.7 mph 24.2 mph N/A   Clear
12:15 PM 49.6 °F - 36.3 °F 60% 30.23 in 10.0 mi NNW 16.1 mph 23.0 mph N/A   Clear
12:35 PM 50.2 °F - 35.1 °F 56% 30.23 in 10.0 mi NW 15.0 mph 18.4 mph N/A   Clear
12:55 PM 50.7 °F - 33.6 °F 52% 30.22 in 10.0 mi NW 13.8 mph 21.9 mph N/A   Clear
1:15 PM 51.3 °F - 34.2 °F 52% 30.21 in 10.0 mi NW 13.8 mph 19.6 mph N/A   Clear
1:35 PM 52.0 °F - 34.9 °F 52% 30.21 in 10.0 mi NW 11.5 mph 16.1 mph N/A   Clear
1:55 PM 51.8 °F - 32.0 °F 47% 30.21 in 10.0 mi NNW 13.8 mph 19.6 mph N/A   Clear
2:15 PM 51.8 °F - 31.6 °F 46% 30.22 in 10.0 mi North 12.7 mph 19.6 mph N/A   Clear
2:35 PM 52.2 °F - 32.4 °F 47% 30.22 in 10.0 mi NNW 13.8 mph 18.4 mph N/A   Clear
2:55 PM 51.8 °F - 31.5 °F 46% 30.23 in 10.0 mi NNW 11.5 mph 20.7 mph N/A   Clear
3:15 PM 51.6 °F - 32.0 °F 47% 30.23 in 10.0 mi North 15.0 mph 19.6 mph N/A   Clear
3:35 PM 50.9 °F - 31.8 °F 48% 30.23 in 10.0 mi North 10.4 mph 13.8 mph N/A   Clear
3:55 PM 50.4 °F - 31.6 °F 49% 30.24 in 10.0 mi NNW 11.5 mph 16.1 mph N/A   Clear
4:15 PM 49.1 °F - 31.5 °F 51% 30.25 in 10.0 mi North 12.7 mph - N/A   Clear
4:35 PM 48.0 °F - 32.0 °F 54% 30.26 in 10.0 mi North 10.4 mph - N/A   Clear
4:55 PM 46.4 °F 42.4 °F 32.2 °F 58% 30.27 in 10.0 mi North 8.1 mph - N/A   Clear
5:15 PM 44.6 °F 41.4 °F 33.1 °F 64% 30.28 in 10.0 mi North 5.8 mph - N/A   Clear
5:35 PM 43.7 °F 41.1 °F 33.8 °F 68% 30.30 in 10.0 mi NNW 4.6 mph - N/A   Clear
5:55 PM 43.0 °F 40.3 °F 34.5 °F 72% 30.31 in 10.0 mi NNW 4.6 mph - N/A   Clear
6:15 PM 42.1 °F 40.2 °F 34.7 °F 75% 30.32 in 10.0 mi NNW 3.5 mph - N/A   Clear
6:35 PM 41.4 °F 39.4 °F 35.1 °F 78% 30.33 in 10.0 mi NNW 3.5 mph - N/A   Clear
6:55 PM 41.9 °F 38.2 °F 34.7 °F 76% 30.33 in 10.0 mi NNW 5.8 mph - N/A   Clear
7:15 PM 41.0 °F 39.0 °F 34.9 °F 79% 30.34 in 10.0 mi NW 3.5 mph - N/A   Clear
7:35 PM 40.1 °F - 34.2 °F 79% 30.34 in 10.0 mi Calm Calm - N/A   Clear
7:55 PM 39.2 °F 35.9 °F 34.3 °F 83% 30.35 in 10.0 mi NW 4.6 mph - N/A   Clear
8:15 PM 39.4 °F 37.2 °F 34.2 °F 82% 30.37 in 10.0 mi WNW 3.5 mph - N/A   Clear
8:35 PM 38.3 °F 34.8 °F 34.2 °F 85% 30.37 in 10.0 mi NW 4.6 mph - N/A   Clear
8:55 PM 38.3 °F - 33.8 °F 84% 30.37 in 10.0 mi Calm Calm - N/A   Clear
9:15 PM 38.3 °F 34.8 °F 33.8 °F 84% 30.38 in 10.0 mi NW 4.6 mph - N/A   Clear
9:35 PM 37.4 °F 32.8 °F 33.4 °F 86% 30.39 in 10.0 mi NW 5.8 mph - N/A   Clear
9:55 PM 37.6 °F 33.1 °F 34.2 °F 87% 30.40 in 10.0 mi NW 5.8 mph - N/A   Clear
10:15 PM 37.6 °F 33.1 °F 34.3 °F 88% 30.40 in 10.0 mi NNW 5.8 mph - N/A   Clear
10:35 PM 37.6 °F 32.3 °F 33.8 °F 86% 30.39 in 10.0 mi North 6.9 mph - N/A   Clear
10:55 PM 37.9 °F 32.7 °F 34.7 °F 88% 30.39 in 10.0 mi North 6.9 mph - N/A   Clear
11:15 PM 38.3 °F 33.9 °F 34.5 °F 86% 30.40 in 10.0 mi NNW 5.8 mph - N/A   Clear
11:35 PM 38.3 °F 33.2 °F 33.6 °F 83% 30.40 in 10.0 mi North 6.9 mph - N/A   Clear
11:55 PM 37.9 °F 32.1 °F 33.1 °F 83% 30.40 in 10.0 mi North 8.1 mph - N/A   Clear